World > North America > United States > New York

Hourly Mexico, NY Regional Weather

Feedback E-mail the Weather

Latest News

Mexico, NY Weather Maps

°F °C°F °C
Mexico Weather Map
UTC Time: 5/27/2022, 23:03
Your Time:

Mexico, NY Regional Weather

Expires:202205272300;;668778
ASUS41 KALY 272210
RWRALY

NEW YORK STATE HOURLY WEATHER ROUNDUP
NATIONAL WEATHER SERVICE ALBANY NY
600 PM EDT FRI MAY 27 2022

NOTE: "FAIR" INDICATES FEW OR NO CLOUDS BELOW 12,000 FEET WITH NO
SIGNIFICANT WEATHER AND/OR NO OBSTRUCTIONS TO VISIBILITY.


NYZ005>009-017-018-044>046-055-056-272300-
CENTRAL

  
CITY           SKY/WX    TMP DP  RH WIND       PRES   REMARKS
FULTON         LGT RAIN  63  61  93 N6        29.67S FOG              
SYRACUSE       LGT RAIN  69  67  93 E5        29.64F                  
ROME           CLOUDY    73  65  75 S12       29.67F                  
ELMIRA         PTSUNNY   73  64  73 W10       29.69R                  
BINGHAMTON     PTSUNNY   66  63  90 SW13G20   29.73R                  
MONTICELLO     CLOUDY    68  66  93 S13       29.80F                  
$$


SKY/WX - Weather  TMP - Temperature  DP - Dew Point  RH - Humidity
WIND - Wind Direction/Speed PRES - Barometric Pressure VSB - Visibility
WCI - Wind Chill Index E13G22 Wind - East Wind 13 mph/Gusts of 22 mph

Trending Headlines

Mexico Radar Loop



Mexico Quick Facts


National Two Day Weather Forecast


E-mail the Mexico Weather Forecast

Voice your opinion or tell us about page issues...